SWR397 EDDS-LSZH

Flight info

Callsign SWR397
Flight time 0h 21m
Altitude 16000
Route SUL3B/25 SUL T721 RILAX RILAX2A
Aircraft A320/M-VGDW/C

Departure

Time 2026-02-19 11:35
Airport Stuttgart Airport (EDDS)

Arrival

Time 2026-02-19 11:56
Airport Zürich Airport (LSZH)
Time Latitude Longitude Altitude Speed Heading
2026-02-19 10:51 48.68930 9.19652 1291 ft 0 kts 343°
2026-02-19 11:16 48.68911 9.19661 1290 ft 3 kts 347°
2026-02-19 11:16 48.68891 9.19668 1289 ft 3 kts 346°
2026-02-19 11:17 48.68872 9.19672 1287 ft 3 kts 18°
2026-02-19 11:17 48.68858 9.19659 1289 ft 2 kts 67°
2026-02-19 11:17 48.68854 9.19643 1291 ft 2 kts 74°
2026-02-19 11:17 48.68851 9.19624 1289 ft 0 kts 74°
2026-02-19 11:21 48.68854 9.19643 1291 ft 8 kts 74°
2026-02-19 11:21 48.68876 9.19761 1287 ft 13 kts 74°
2026-02-19 11:21 48.68864 9.19877 1287 ft 12 kts 170°
2026-02-19 11:21 48.68820 9.19958 1285 ft 11 kts 92°
2026-02-19 11:22 48.68845 9.20078 1285 ft 13 kts 75°
2026-02-19 11:22 48.68871 9.20218 1286 ft 15 kts 74°
2026-02-19 11:22 48.68901 9.20374 1285 ft 16 kts 74°
2026-02-19 11:22 48.68935 9.20545 1288 ft 18 kts 73°
2026-02-19 11:23 48.68970 9.20731 1287 ft 19 kts 74°
2026-02-19 11:23 48.69004 9.20912 1286 ft 11 kts 74°
2026-02-19 11:23 48.68983 9.20976 1287 ft 0 kts 155°
2026-02-19 11:29 48.68971 9.20985 1285 ft 9 kts 155°
2026-02-19 11:29 48.68956 9.21085 1287 ft 11 kts 79°
2026-02-19 11:30 48.68977 9.21211 1288 ft 13 kts 72°
2026-02-19 11:30 48.69007 9.21356 1289 ft 15 kts 72°
2026-02-19 11:30 48.69088 9.21418 1285 ft 15 kts 13°
2026-02-19 11:30 48.69126 9.21551 1287 ft 15 kts 76°
2026-02-19 11:31 48.69154 9.21709 1287 ft 16 kts 74°
2026-02-19 11:31 48.69187 9.21878 1285 ft 17 kts 73°
2026-02-19 11:31 48.69222 9.22057 1288 ft 18 kts 74°
2026-02-19 11:31 48.69258 9.22249 1285 ft 19 kts 74°
2026-02-19 11:32 48.69295 9.22450 1287 ft 20 kts 74°
2026-02-19 11:32 48.69375 9.22871 1285 ft 21 kts 74°
2026-02-19 11:32 48.69417 9.23088 1286 ft 22 kts 74°
2026-02-19 11:33 48.69459 9.23308 1285 ft 22 kts 74°
2026-02-19 11:33 48.69501 9.23534 1287 ft 23 kts 74°
2026-02-19 11:33 48.69498 9.23715 1290 ft 14 kts 124°
2026-02-19 11:33 48.69413 9.23735 1288 ft 13 kts 203°
2026-02-19 11:34 48.69354 9.23650 1285 ft 11 kts 223°
2026-02-19 11:34 48.69283 9.23537 1288 ft 18 kts 230°
2026-02-19 11:34 48.69216 9.23386 1286 ft 17 kts 249°
2026-02-19 11:34 48.69136 9.22988 1286 ft 80 kts 254°
2026-02-19 11:35 48.68904 9.21795 1290 ft 153 kts 253°
2026-02-19 11:35 48.68607 9.20134 1856 ft 164 kts 256°
2026-02-19 11:35 48.68364 9.18475 2732 ft 158 kts 257°
2026-02-19 11:35 48.68101 9.16834 3301 ft 168 kts 253°
2026-02-19 11:36 48.67705 9.15013 3428 ft 195 kts 252°
2026-02-19 11:36 48.66774 9.10632 3807 ft 239 kts 246°
2026-02-19 11:36 48.65689 9.08670 4257 ft 254 kts 217°
2026-02-19 11:37 48.64031 9.07588 4687 ft 267 kts 202°
2026-02-19 11:37 48.62308 9.06683 5574 ft 260 kts 204°
2026-02-19 11:37 48.60599 9.05750 6533 ft 263 kts 204°
2026-02-19 11:37 48.58861 9.04809 7506 ft 267 kts 203°
2026-02-19 11:38 48.57102 9.03893 8579 ft 267 kts 202°
2026-02-19 11:38 48.55323 9.02935 9452 ft 276 kts 205°
2026-02-19 11:38 48.53556 9.01836 10220 ft 283 kts 211°
2026-02-19 11:38 48.52021 8.99982 11085 ft 283 kts 228°
2026-02-19 11:39 48.50831 8.97533 11405 ft 304 kts 242°
2026-02-19 11:39 48.49775 8.94620 11727 ft 325 kts 242°
2026-02-19 11:39 48.48649 8.91606 12390 ft 334 kts 241°
2026-02-19 11:39 48.47481 8.88546 13160 ft 339 kts 241°
2026-02-19 11:40 48.46290 8.85451 13885 ft 343 kts 241°
2026-02-19 11:40 48.43855 8.79171 15264 ft 351 kts 240°
2026-02-19 11:40 48.42612 8.75975 15556 ft 354 kts 240°
2026-02-19 11:41 48.41358 8.72746 15629 ft 367 kts 241°
2026-02-19 11:41 48.39920 8.69483 15633 ft 379 kts 232°
2026-02-19 11:41 48.38052 8.66674 15633 ft 382 kts 220°
2026-02-19 11:41 48.35814 8.64500 15631 ft 386 kts 208°
2026-02-19 11:42 48.33294 8.63054 15642 ft 389 kts 197°
2026-02-19 11:42 48.30633 8.62219 15641 ft 390 kts 193°
2026-02-19 11:42 48.27970 8.61424 15640 ft 390 kts 193°
2026-02-19 11:42 48.25338 8.60633 15644 ft 390 kts 194°
2026-02-19 11:43 48.22678 8.59826 15639 ft 391 kts 194°
2026-02-19 11:43 48.20036 8.59028 15622 ft 380 kts 194°
2026-02-19 11:43 48.17487 8.58265 15295 ft 369 kts 194°
2026-02-19 11:43 48.14987 8.57513 14808 ft 364 kts 194°
2026-02-19 11:44 48.12513 8.56770 14294 ft 361 kts 194°
2026-02-19 11:44 48.07631 8.55316 13258 ft 354 kts 194°
2026-02-19 11:44 48.05228 8.54599 12687 ft 351 kts 194°
2026-02-19 11:45 48.02841 8.53888 12120 ft 348 kts 194°
2026-02-19 11:45 48.00481 8.53187 11560 ft 345 kts 194°
2026-02-19 11:45 47.98137 8.52491 11002 ft 342 kts 194°
2026-02-19 11:45 47.95825 8.51809 10623 ft 333 kts 194°
2026-02-19 11:46 47.93601 8.51158 10493 ft 318 kts 194°
2026-02-19 11:46 47.91476 8.50523 10378 ft 304 kts 195°
2026-02-19 11:46 47.90122 8.50114 10293 ft 296 kts 195°
2026-02-19 11:47 47.89729 8.49996 10266 ft 294 kts 195°
2026-02-19 11:47 47.87700 8.49294 10127 ft 282 kts 196°
2026-02-19 11:47 47.85802 8.48700 9849 ft 277 kts 195°
2026-02-19 11:47 47.83920 8.48146 9504 ft 275 kts 194°
2026-02-19 11:48 47.82048 8.47606 9100 ft 273 kts 195°
2026-02-19 11:48 47.78957 8.46706 8429 ft 270 kts 195°
2026-02-19 11:48 47.76523 8.45981 7917 ft 268 kts 196°
2026-02-19 11:49 47.74705 8.45432 7498 ft 266 kts 196°
2026-02-19 11:49 47.73482 8.45063 7204 ft 263 kts 196°
2026-02-19 11:49 47.71827 8.44566 6596 ft 260 kts 197°
2026-02-19 11:49 47.70082 8.43953 6087 ft 257 kts 205°
2026-02-19 11:50 47.68529 8.42768 5643 ft 246 kts 219°
2026-02-19 11:50 47.67326 8.41107 5390 ft 224 kts 230°
2026-02-19 11:50 47.66315 8.39485 5255 ft 206 kts 230°
2026-02-19 11:50 47.65359 8.37967 5104 ft 197 kts 229°
2026-02-19 11:51 47.64283 8.36752 4943 ft 194 kts 211°
2026-02-19 11:51 47.63012 8.36161 4824 ft 191 kts 193°
2026-02-19 11:51 47.61681 8.36233 4640 ft 194 kts 175°
2026-02-19 11:51 47.60429 8.36995 4461 ft 198 kts 154°
2026-02-19 11:52 47.59387 8.38299 4371 ft 191 kts 145°
2026-02-19 11:52 47.57478 8.40905 3918 ft 186 kts 144°
2026-02-19 11:52 47.56528 8.42191 3652 ft 184 kts 144°
2026-02-19 11:53 47.55605 8.43461 3354 ft 177 kts 142°
2026-02-19 11:53 47.54737 8.44678 3089 ft 167 kts 141°
2026-02-19 11:53 47.53920 8.45801 2837 ft 154 kts 141°
2026-02-19 11:53 47.53153 8.46829 2705 ft 145 kts 141°
2026-02-19 11:54 47.52415 8.47838 2566 ft 145 kts 140°
2026-02-19 11:54 47.51678 8.48850 2407 ft 144 kts 140°
2026-02-19 11:54 47.50950 8.49848 2188 ft 146 kts 138°
2026-02-19 11:55 47.49488 8.51851 1753 ft 138 kts 136°
2026-02-19 11:55 47.48796 8.52799 1576 ft 134 kts 136°
2026-02-19 11:55 47.48123 8.53723 1437 ft 130 kts 136°
2026-02-19 11:55 47.47511 8.54568 1394 ft 102 kts 137°
2026-02-19 11:56 47.47113 8.55105 1385 ft 53 kts 137°
2026-02-19 11:56 47.46653 8.55658 1401 ft 39 kts 159°
2026-02-19 11:56 47.46423 8.55739 1404 ft 31 kts 167°
2026-02-19 11:57 47.46262 8.55923 1403 ft 29 kts 138°
2026-02-19 11:57 47.46132 8.55995 1407 ft 17 kts 184°
2026-02-19 11:57 47.46013 8.55980 1406 ft 19 kts 184°
2026-02-19 11:57 47.45898 8.55940 1412 ft 16 kts 210°
2026-02-19 11:58 47.45799 8.55881 1410 ft 15 kts 192°
2026-02-19 11:58 47.45686 8.55864 1411 ft 18 kts 186°
2026-02-19 11:58 47.45633 8.55793 1410 ft 7 kts 288°
2026-02-19 11:58 47.45654 8.55648 1404 ft 21 kts 277°
2026-02-19 11:59 47.45671 8.55414 1401 ft 25 kts 275°
2026-02-19 11:59 47.45617 8.55312 1401 ft 4 kts 158°
2026-02-19 11:59 47.45571 8.55368 1400 ft 19 kts 141°
2026-02-19 11:59 47.45449 8.55459 1404 ft 20 kts 156°
2026-02-19 12:00 47.45324 8.55546 1406 ft 20 kts 154°
2026-02-19 12:00 47.45296 8.55748 1407 ft 5 kts 350°
2026-02-19 12:00 47.45331 8.55752 1412 ft 5 kts
2026-02-19 12:01 47.45348 8.55755 1413 ft 0 kts